Location: ??
(34.7707°N, 135.6540°E)
Time: 21:18:09
(UTC+00:00)

ATLAS 3B R/B - Pass Details

Date: 09 April 2020
Orbit: 1024 x 1171 km, 63.8° (Epoch: 20 May)

Event Time Altitude Azimuth Distance (km) Brightness Sun altitude
Exits shadow 19:00:36 29° 264° (W) 1,802 3.4 -18.8°
Maximum altitude 19:03:10 39° 308° (NW) 1,492 3.2 -18.3°
Drops below altitude 10° 19:09:18 10° 16° (NNE) 2,821 5.4 -17.2°
Sets 19:12:08 0° 24° (NNE) 3,782 6.3 -16.6°
